Flag for Israel Weather past 2 weeks in Tel Aviv, Israel

Now
88 °F

Scattered clouds.


Feels Like: 94 °F
Forecast: 76 / 87 °F
Wind: 12 mph from West

Location: Ben Gurion International Airport

Current Time: Jul 28, 2014 at 5:01:00 PM

Latest Report: Jul 28, 2014 at 4:20 PM


Visibility: N/A

Pressure: 29.86 "Hg

Humidity: 59%

Dew point: 72 °F

Location of Tel AvivLocation

Historic Weather in Tel Aviv — Graph

°F

Tel Aviv temperature yesterday

Maximum temperature yesterday: 90 °F (at 1:50 PM)
Minimum temperature yesterday: 75 °F (at 2:20 AM)
Average temperature yesterday: 82 °F

Past Weeks' High & Low Weather Summary

 TemperatureHumidityPressure
High90 °F (Jul 23, 12:20 PM)89% (Jul 24, 3:20 AM)29.92 "Hg (Jul 24, 3:20 AM)
Low72 °F (Jul 26, 5:50 AM)46% (Jul 16, 11:20 AM)29.71 "Hg (Jul 25, 3:20 PM)
Average81 °F66%29.80 "Hg
* Reported Jul 13 3:20 PM — Jul 28 3:50 PM, Tel Aviv, Weather by CustomWeather, © 2014

Note: Actual official high and low records may vary slightly from our data, if they occured in-between our weather recording intervals... More about our weather records

Advertising

Tel Aviv weather history for previous 24 hours

 ConditionsComfort  
Time TempWeatherWind HumidityBarometerVisibility
3:50 PM
Jul 28
88 °FScattered clouds.12 mph59%29.86 "HgN/A
3:20 PM88 °FScattered clouds.10 mph59%29.86 "HgN/A
2:50 PM88 °FPassing clouds.12 mph55%29.86 "HgN/A
2:20 PM88 °FPassing clouds.12 mph55%29.86 "HgN/A
1:50 PM88 °FPassing clouds.10 mph55%29.86 "HgN/A
1:20 PM90 °FPassing clouds.12 mph52%29.89 "HgN/A
12:50 PM88 °FPassing clouds.10 mph55%29.89 "HgN/A
12:20 PM88 °FPassing clouds.10 mph55%29.89 "HgN/A
11:50 AM88 °FScattered clouds.10 mph55%29.89 "HgN/A
11:20 AM88 °FScattered clouds.7 mph55%29.92 "HgN/A
10:50 AM88 °FScattered clouds.5 mph55%29.92 "HgN/A
10:20 AM86 °FPartly sunny.6 mph59%29.92 "HgN/A
9:50 AM84 °FScattered clouds.3 mph62%29.92 "HgN/A
9:20 AM84 °FPartly sunny.2 mph62%29.92 "HgN/A
8:50 AM84 °FScattered clouds.3 mph62%29.92 "HgN/A
8:20 AM81 °FScattered clouds.5 mph70%29.92 "HgN/A
7:50 AM81 °FScattered clouds.6 mph70%29.92 "HgN/A
7:20 AM79 °FScattered clouds.6 mph74%29.92 "HgN/A
6:50 AM75 °FPassing clouds.2 mph83%29.89 "HgN/A
6:20 AM75 °FPassing clouds.3 mph83%29.89 "HgN/A
5:20 AM75 °FPassing clouds.5 mph83%29.89 "HgN/A
4:50 AM75 °FPassing clouds.6 mph83%29.89 "HgN/A
4:20 AM75 °FPassing clouds.5 mph83%29.89 "HgN/A
3:50 AM75 °FPassing clouds.3 mph83%29.89 "HgN/A
3:20 AM75 °FPassing clouds.5 mph83%29.89 "HgN/A
2:20 AM77 °FPassing clouds.6 mph79%29.89 "HgN/A
1:50 AM77 °FPassing clouds.3 mph79%29.89 "HgN/A
1:20 AM77 °FPassing clouds.3 mph74%29.89 "HgN/A
12:50 AM79 °FPassing clouds.5 mph74%29.89 "HgN/A
12:20 AM79 °FPassing clouds.2 mph74%29.92 "HgN/A
11:50 PM
Jul 27
79 °FPassing clouds.2 mph74%29.92 "HgN/A
11:20 PM79 °FPassing clouds.3 mph74%29.89 "HgN/A
10:50 PM79 °FPassing clouds.3 mph74%29.89 "HgN/A
10:20 PM81 °FPassing clouds.5 mph70%29.89 "HgN/A
9:50 PM81 °FPassing clouds.2 mph70%29.92 "HgN/A
9:20 PM81 °FPassing clouds.5 mph70%29.92 "HgN/A
8:50 PM81 °FPassing clouds.7 mph70%29.89 "HgN/A
8:20 PM81 °FScattered clouds.8 mph70%29.89 "HgN/A
7:50 PM81 °FScattered clouds.9 mph74%29.89 "HgN/A
7:20 PM82 °FPassing clouds.9 mph70%29.89 "HgN/A
6:50 PM84 °FPassing clouds.10 mph66%29.89 "HgN/A
6:20 PM86 °FPassing clouds.12 mph62%29.86 "HgN/A
5:20 PM86 °FPassing clouds.13 mph62%29.86 "HgN/A
Weather by CustomWeather, © 2014

See weather overviewHow to use our weather pages